Regional Weather Roundup
Issued by NWS Albany, NY

Current Version | Previous Version | Text Only | Print | Product List | Glossary On
Versions: 1 2 3 4 5 6 7 8 9 10 11 12 13 14 15 16 17 18 19 20 21 22 23 24 25 26 27
000
ASUS41 KALY 230710
RWRALY

NEW YORK STATE HOURLY WEATHER ROUNDUP
NATIONAL WEATHER SERVICE ALBANY NY
300 AM EDT FRI JUN 23 2017

NOTE: "FAIR" INDICATES FEW OR NO CLOUDS BELOW 12,000 FEET WITH NO
SIGNIFICANT WEATHER AND/OR NO OBSTRUCTIONS TO VISIBILITY.

NYZ032-033-038>043-046>054-057>066-NYZ062>081-082-084-230800-
EAST


CITY           SKY/WX    TMP DP  RH WIND       PRES   REMARKS
ALBANY         MOCLDY    72  63  73 S7        29.80F
GLENS FALLS    PTCLDY    63  61  93 CALM      29.79F
POUGHKEEPSIE   CLOUDY    68  64  87 SE3       29.82F
NEWBURGH       CLEAR     75  68  78 W7        29.86F
MONTGOMERY     CLOUDY    72  66  81 CALM      29.84F
WHITE PLAINS   CLEAR     73  68  83 CALM      29.85F
ISLIP          CLOUDY    73  71  93 SW5       29.85F
NEW YORK CITY  CLOUDY    81  71  71 SW7       29.84F
CENTRAL PARK   CLOUDY    79  69  71 VRB5      29.87F
$$

NYZ005>009-017-018-044>046-055-056-230800-
CENTRAL


CITY           SKY/WX    TMP DP  RH WIND       PRES   REMARKS
FULTON         CLOUDY    72  66  81 S6        29.74F
SYRACUSE       CLOUDY    76  67  73 S9        29.73F
ROME           MOCLDY    66  63  90 E3        29.76F
ELMIRA         NOT AVBL
BINGHAMTON     NOT AVBL
MONTICELLO     PTCLDY    68  64  88 CALM      29.90F
$$

NYZ026>034-041>043-087-230800-
NORTH


CITY           SKY/WX    TMP DP  RH WIND       PRES   REMARKS
WATERTOWN      TSTM      69  69 100 SW8       29.76R VSB 1
FORT DRUM      NOT AVBL
OGDENSBURG     LGT RAIN  64  63  94 CALM      29.73F
MASSENA        LGT RAIN  64  63  96 E3        29.75F
SARANAC LAKE   HVY RAIN  60  60 100 VRB5      29.81R VSB 1/2
PLATTSBURGH    RAIN      63  60  90 NE7       29.77R FOG
$$

NYZ001>004-010>016-019>021-085-230800-
WEST


CITY           SKY/WX    TMP DP  RH WIND       PRES   REMARKS
NIAGARA FALLS  MOCLDY    76  66  71 SW15      29.73F
BUFFALO        CLOUDY    74  67  78 SW10      29.75F
DUNKIRK        PTCLDY    75  68  78 S15       29.77F THUNDER
JAMESTOWN      CLOUDY    70  64  83 S10G16    29.84S
WELLSVILLE     MOCLDY    71  65  81 SW9G20    29.87F
ROCHESTER      CLOUDY    75  68  78 SW13      29.74F
PENN YAN       PTCLDY    73  65  75 SW7       29.79F
$$

             KEY
       WCI = WIND CHILL INDEX
       VSB = VISIBILITY
       HX  = HEAT INDEX
$$




USA.gov is the U.S. government's official web portal to all federal, state and local government web resources and services.